Tracking 21612 objects as of 22-Oct-2020
HD Live streaming from Space Station
objects crossing your sky now

GAOFEN 13

Track GAOFEN 13 now!


NORAD ID: 46610
Int'l Code: 2020-071A
Perigee: 35,781.6 km
Apogee: 35,807.1 km
Inclination: 2.0 °
Period: 1,436.1 minutes
Semi major axis: 42165 km
RCS: Unknown
Launch date: October 11, 2020
Source: People's Republic of China (PRC)
Launch site: Xichang Space Center, China (XSC)
aabbcc
Your satellite tracking list
Your tracking list is empty




NASA's NSSDC Master Catalog

Two Line Element Set (TLE):
1 46610U 20071A   20295.27009336 -.00000377 +00000-0 +00000-0 0  9993
2 46610 001.9863 282.3044 0003028 280.7671 042.2354 01.00269532000203
Source of the keplerian elements: AFSPC